RH
24 28 39 40 42 53 63 59 78 91 90 99 93 93 91 86 88 84 86 83 78 76 72 66 65 61 56 60 61 60 60 67 74 78 77 62 46 47 47 41 44 47 50 61 64 59 63 74 75 75 82 83 85 88 87 81 70 69 75 83 77 77 89 87 88 87 83 86 83 87 85 86 88 81 73 75 90 84 76 86 88 87 88 86 88 83 77 86 90 90 90 89 88 85 86 85 81
24 30 38 39 45 58 64 63 90 102 96 99 92 95 93 90 89 82 84 85 81 69 61 54 51 49 49 54 52 58 60 57 59 59 59 51 45 46 44 38 41 45 53 66 64 57 65 74 70 70 76 83 86 87 90 84 76 74 81 85 77 82 91 91 81 63 73 86 83 88 89 89 87 76 67 66 84 89 75 79 92 92 89 86 90 87 84 93 93 92 91 91 91 87 90 88 81
25 33 35 40 51 61 68 73 92 99 99 99 92 95 90 88 87 86 82 80 78 56 50 47 46 49 49 56 54 61 60 51 52 50 51 50 45 46 44 37 39 44 53 66 62 59 72 76 70 71 74 79 85 87 89 87 81 76 84 86 75 82 93 91 79 63 72 85 85 87 90 92 87 76 68 64 76 91 84 73 84 94 90 79 86 92 85 90 92 95 94 93 94 91 91 90 86
28 35 37 45 58 66 79 87 93 97 99 97 94 95 93 90 84 88 74 64 71 52 48 45 42 47 47 55 52 52 52 49 55 56 57 56 54 53 47 40 40 43 49 59 61 65 75 78 74 76 78 80 86 91 91 89 86 81 87 90 79 82 92 91 85 82 82 84 87 88 90 93 89 82 73 69 72 85 91 80 77 87 91 80 81 91 89 89 92 95 95 97 95 94 91 87 89
30 38 45 53 65 68 77 89 93 98 97 95 96 91 88 90 90 89 61 45 55 49 48 41 42 45 42 49 47 50 53 51 57 60 63 64 63 59 52 48 45 44 47 54 62 68 73 79 78 79 86 88 91 95 94 94 92 89 89 91 87 79 81 84 82 84 87 88 88 91 92 92 91 87 82 77 76 80 89 89 76 72 85 87 79 85 93 93 92 95 94 97 96 96 95 89 90
31 41 52 58 61 60 75 89 94 99 94 90 90 86 79 76 83 76 49 38 39 39 41 38 43 44 45 50 49 55 58 54 57 61 64 64 64 62 58 54 49 46 48 53 64 73 76 82 84 85 95 96 95 97 96 96 95 95 94 90 91 85 74 71 76 79 85 90 88 93 95 93 92 91 89 83 82 81 82 86 77 69 80 85 77 82 95 96 93 95 92 94 95 95 96 91 89
33 42 56 62 61 62 81 93 93 97 91 85 83 81 73 62 62 56 45 43 37 34 37 38 39 43 53 54 52 59 62 60 59 62 65 65 65 65 62 58 52 49 54 60 68 77 82 85 89 94 99 99 98 100 99 99 98 96 95 91 91 94 85 74 76 75 77 90 91 95 95 92 93 93 94 88 87 87 83 79 70 72 83 83 77 81 91 95 92 92 92 94 95 96 97 94 91
43 47 55 66 75 74 85 93 91 94 89 78 68 64 54 47 47 46 46 45 39 36 37 38 38 51 59 52 52 59 61 62 61 63 64 64 64 65 66 63 57 57 63 68 77 83 88 92 94 98 100 100 100 100 98 98 99 97 95 93 94 94 94 89 85 77 72 86 92 93 94 91 92 91 94 95 92 91 88 79 66 65 77 86 83 80 87 94 90 90 93 95 96 96 98 97 97
50 51 53 65 78 78 84 89 85 89 87 61 40 39 34 35 39 40 46 43 39 36 37 38 40 54 56 49 49 53 59 61 61 62 61 62 63 65 67 65 66 74 77 78 88 92 95 99 98 100 99 100 100 99 98 97 99 100 98 96 97 96 95 92 88 83 76 83 91 90 91 93 94 91 93 97 97 94 90 85 77 66 67 82 84 75 81 90 89 92 93 94 97 97 98 98 100
47 49 51 64 74 76 83 84 84 83 70 48 31 29 28 32 35 37 42 41 40 36 38 39 42 51 51 50 49 49 55 57 59 59 60 60 61 65 66 70 78 87 90 90 95 98 99 100 99 100 100 100 100 100 99 99 99 100 99 97 98 98 97 96 91 90 87 84 84 84 88 94 94 93 94 95 97 97 92 90 87 77 67 72 80 75 76 85 89 92 91 94 98 95 96 99 100
41 42 45 60 67 71 81 79 84 77 54 44 36 29 28 32 32 36 40 38 38 36 34 37 44 48 47 47 45 49 52 53 55 55 57 57 59 62 64 72 81 87 91 94 98 100 100 100 100 100 100 100 100 100 100 100 100 100 100 98 98 98 98 99 97 95 96 90 85 86 90 94 93 94 96 94 94 94 93 93 92 88 76 69 75 73 70 80 91 94 90 90 95 94 95 100 100
36 55 62 64 68 66 75 78 80 75 59 47 33 28 31 30 29 35 41 40 37 36 34 36 43 46 51 49 43 49 49 49 51 51 53 54 57 58 61 68 73 80 83 87 95 95 95 97 99 98 99 100 100 100 100 98 98 100 100 100 100 99 99 99 98 97 96 93 93 94 92 92 93 94 95 94 94 92 92 95 95 94 86 78 77 71 65 72 86 94 91 88 92 96 97 100 100
36 62 66 61 75 70 66 73 75 65 55 46 32 32 32 29 33 35 37 39 38 39 38 38 41 44 53 48 40 47 44 45 47 47 50 50 53 53 56 59 63 71 74 82 87 83 83 86 89 92 94 95 96 98 98 95 93 94 94 97 99 99 100 99 98 98 97 92 93 94 92 93 93 93 91 92 94 90 90 94 94 95 92 89 87 78 67 64 75 89 91 92 94 96 97 99 100
32 44 48 52 69 68 59 57 58 50 48 46 31 31 32 31 37 33 32 40 42 40 38 37 39 40 47 45 40 44 41 40 41 42 45 46 48 49 52 53 56 60 64 73 71 69 71 70 72 78 83 86 88 90 92 90 87 85 83 88 94 99 100 99 99 97 95 90 87 84 83 84 85 90 90 91 93 90 90 91 92 94 94 93 94 88 76 63 65 85 92 92 95 94 96 99 99
26 28 42 47 49 58 56 46 47 48 52 47 28 29 33 33 37 33 33 41 42 38 37 36 36 38 44 45 42 42 39 36 36 36 38 39 41 44 46 46 49 50 52 55 54 57 58 57 58 60 65 71 76 78 79 81 81 78 75 77 82 91 96 97 97 95 94 91 87 80 73 70 72 80 88 91 90 89 89 90 89 89 93 94 94 92 86 72 61 77 91 90 95 92 92 98 99
23 25 41 44 44 54 52 45 47 47 50 45 29 30 33 34 38 33 34 37 37 36 37 36 34 37 40 41 40 39 38 33 32 32 32 33 34 36 37 38 39 40 40 41 42 43 42 45 47 47 48 51 56 59 60 65 70 67 63 63 63 69 80 85 84 84 89 91 90 85 75 70 69 69 76 85 88 89 88 88 87 85 89 90 91 90 87 81 66 66 76 81 91 93 90 94 99
19 25 39 40 47 51 48 45 42 42 44 40 31 32 36 38 36 33 36 34 35 37 36 36 35 37 39 38 37 37 36 32 31 29 29 30 29 30 30 29 30 30 30 30 31 29 29 33 34 35 37 38 38 39 42 46 54 57 53 53 52 50 54 62 66 69 74 80 84 86 83 78 77 72 69 76 82 87 89 90 88 86 88 85 86 87 83 83 76 67 64 70 85 92 93 95 98
21 36 36 35 51 48 48 48 39 37 33 31 32 33 36 38 35 32 35 35 35 36 36 36 36 36 37 36 36 36 33 31 29 28 30 29 28 29 27 25 26 25 24 23 23 23 24 24 24 25 26 28 27 28 31 31 35 40 40 45 49 44 38 40 45 50 53 59 64 70 78 80 81 81 77 76 77 81 87 91 91 87 86 85 86 85 86 86 83 76 66 64 77 89 94 98 97
27 42 35 44 65 48 39 41 34 29 24 28 32 31 34 34 32 30 36 40 37 41 41 37 38 38 37 35 35 33 31 29 28 28 28 27 27 27 26 25 24 24 23 23 22 21 21 20 20 20 20 20 19 21 23 23 23 23 25 29 34 35 33 32 31 32 35 39 40 39 49 60 65 71 76 77 78 80 83 88 91 88 85 85 86 85 87 91 90 82 71 63 66 81 92 96 97
24 29 33 51 64 45 30 28 25 23 23 27 29 31 34 32 30 30 39 43 43 47 43 38 40 40 38 35 32 29 28 27 26 27 27 26 27 26 26 26 26 26 26 26 25 23 22 20 20 19 19 18 18 18 18 19 19 17 18 19 20 21 22 25 24 24 25 28 28 23 26 34 38 42 50 59 65 69 72 80 85 88 90 89 89 85 85 89 93 89 83 76 67 70 83 93 95
23 27 38 45 44 36 24 20 22 22 23 24 28 32 32 31 31 33 37 41 49 48 34 33 37 38 37 32 28 26 26 26 27 27 27 28 28 28 28 27 28 28 28 27 26 25 23 21 21 20 20 19 19 19 18 18 18 17 17 16 17 16 15 16 18 19 19 19 19 18 19 22 23 22 26 32 40 43 44 56 68 75 81 86 90 89 87 86 90 92 91 88 80 72 72 84 93
24 29 35 34 32 30 21 21 22 21 23 26 32 31 29 32 33 35 35 39 48 40 29 32 33 34 34 28 27 27 26 28 29 29 29 30 30 30 29 29 29 29 28 26 24 24 23 22 22 22 22 21 21 20 20 20 19 19 18 18 17 16 17 16 15 15 15 15 14 14 14 15 17 16 16 15 21 24 20 26 40 52 58 65 75 84 89 89 88 91 92 90 89 84 74 74 85
29 33 29 25 28 26 21 22 21 21 25 27 31 29 29 34 34 36 36 38 41 33 31 33 32 33 30 27 27 27 28 29 30 31 30 30 30 30 29 28 27 25 23 22 22 22 22 23 23 23 23 22 23 22 22 22 21 21 20 20 19 18 18 17 17 16 15 15 14 14 13 12 13 13 13 12 12 15 13 11 15 24 30 35 47 61 74 83 88 89 90 91 91 91 84 74 75
32 37 30 24 24 23 21 21 22 23 26 27 30 28 30 33 32 36 40 39 38 33 33 33 31 30 27 28 28 28 30 31 31 30 29 29 29 27 25 24 22 21 22 22 22 23 23 23 23 24 24 24 24 23 23 23 23 22 22 21 21 20 19 19 18 18 17 16 16 15 14 14 13 12 13 13 13 12 12 12 11 11 12 14 20 32 44 55 72 87 91 93 92 93 94 85 75
34 35 35 29 23 21 20 20 22 23 27 29 30 30 31 33 31 36 41 39 36 34 34 33 31 30 29 29 29 30 31 33 32 28 27 27 25 24 22 22 22 22 23 22 23 23 23 23 23 24 24 24 23 23 23 22 22 22 21 21 20 20 20 20 19 18 18 17 17 16 15 15 15 15 14 13 14 13 12 12 12 12 10 10 9 13 21 23 35 60 81 94 97 95 96 95 86
36 36 38 29 21 22 19 19 21 23 28 28 30 33 31 31 33 38 41 38 35 35 34 34 33 31 31 30 30 32 32 33 30 25 24 23 23 23 22 22 23 23 23 23 23 22 22 22 23 23 22 23 22 22 21 20 20 19 18 18 17 17 17 17 17 17 17 16 16 15 15 15 15 15 15 15 15 14 14 13 12 12 11 11 10 8 10 11 11 23 44 71 92 97 95 97 98
37 36 38 30 20 22 20 20 21 22 27 27 31 36 33 31 34 42 43 38 35 35 36 36 35 33 31 31 32 33 31 28 25 24 23 22 23 23 23 24 23 23 23 23 23 22 22 22 22 22 21 20 20 20 19 19 17 17 16 15 14 15 15 15 15 15 15 15 15 14 14 14 15 15 15 16 15 15 14 14 14 12 12 11 11 10 8 8 8 10 15 31 61 87 96 97 99
31 26 32 33 22 19 22 24 22 23 26 26 31 34 34 32 34 43 43 38 37 35 37 37 34 32 31 33 31 28 25 23 23 23 23 24 24 24 24 24 24 24 24 23 23 23 22 22 21 21 20 19 18 18 17 17 16 16 15 15 15 15 15 15 15 15 15 15 15 14 14 14 15 14 14 14 14 15 14 14 14 13 14 12 11 11 9 8 7 9 11 13 28 56 82 95 99
26 22 30 39 29 21 24 28 24 23 24 22 26 29 32 38 39 41 39 38 38 35 38 38 33 32 32 31 25 22 22 22 23 23 24 25 25 26 26 25 25 25 24 24 23 23 23 22 21 20 19 18 18 18 17 17 17 16 16 16 17 17 18 18 17 17 17 18 17 16 16 16 17 17 16 16 15 15 15 15 15 14 14 13 13 12 10 10 8 8 10 12 15 28 52 78 95
20 28 40 44 33 25 23 29 28 22 22 19 20 25 29 40 45 42 39 37 36 38 41 36 33 34 32 24 21 22 23 23 24 25 26 27 27 27 26 26 25 25 24 24 23 23 22 21 21 19 18 18 18 18 18 18 18 19 20 20 21 21 22 22 21 21 20 20 20 19 19 19 21 21 21 21 22 23 22 22 21 19 17 15 14 13 12 10 10 9 9 12 12 17 32 55 80
27 38 53 48 34 34 29 31 33 24 23 19 18 29 28 30 40 42 40 37 36 41 41 36 36 35 28 21 22 23 24 25 26 27 28 28 28 27 26 25 25 25 24 23 23 22 21 21 20 19 18 19 21 21 20 20 21 21 22 23 24 25 26 26 26 25 25 24 23 22 23 27 28 27 29 31 33 35 34 34 32 29 24 21 17 14 14 11 10 9 10 15 15 16 25 42 66
47 33 42 46 34 37 36 34 35 26 26 21 20 35 35 32 40 44 43 39 37 41 41 39 36 29 23 22 24 24 25 27 28 29 29 28 28 26 25 26 25 25 24 24 24 22 22 22 20 19 21 25 28 26 25 27 31 33 32 31 30 29 28 28 28 28 27 26 26 25 26 33 37 36 38 41 43 44 44 42 40 38 34 29 24 18 15 13 12 10 10 18 23 24 27 39 62
59 32 23 32 30 33 38 38 35 28 29 28 25 33 34 34 41 45 45 40 38 41 42 41 33 24 23 24 24 25 27 28 29 30 30 28 28 26 26 26 26 26 25 25 24 23 23 22 21 24 28 33 33 30 33 42 49 51 48 46 43 40 37 34 32 30 28 26 27 28 28 32 41 45 47 49 50 50 48 47 44 44 43 38 33 28 22 17 14 13 13 18 25 32 37 44 62
49 43 29 30 34 37 41 40 37 35 34 30 30 33 34 40 44 45 45 41 40 43 44 41 30 24 24 24 25 26 28 29 30 30 30 29 27 27 27 26 27 26 25 25 24 24 24 23 25 29 32 35 35 36 46 57 59 57 54 53 52 49 47 44 41 36 32 31 29 30 31 32 39 48 53 55 56 56 55 55 53 51 49 47 44 41 35 30 24 21 20 22 26 31 40 51 65
32 38 35 37 41 44 48 45 42 41 39 35 36 39 43 50 48 45 45 41 40 43 44 37 27 25 25 25 25 27 29 30 30 30 30 29 28 28 27 27 27 26 25 25 26 26 26 28 29 29 32 34 35 39 50 59 60 57 54 52 53 56 57 55 52 49 45 43 39 37 38 36 38 44 50 54 55 57 58 58 59 60 57 53 51 50 47 44 39 33 30 30 33 32 35 49 65
32 34 39 40 38 42 45 46 47 44 42 43 41 47 56 58 51 47 45 41 42 45 42 34 28 26 26 25 27 28 29 30 31 30 29 29 29 29 28 27 26 24 25 28 28 30 30 31 31 32 37 41 43 50 59 67 67 65 62 57 56 61 68 66 61 59 58 56 51 43 41 39 38 38 41 47 51 53 55 55 56 60 63 58 54 54 52 51 50 45 39 36 38 39 36 43 61
35 38 43 42 40 38 33 37 46 43 42 45 46 57 65 61 55 48 43 42 45 44 40 35 29 27 26 27 28 28 31 32 31 29 29 31 30 29 28 26 24 23 27 30 31 33 33 34 36 38 44 48 50 55 58 59 57 56 57 55 54 59 69 71 64 60 59 59 55 48 43 40 37 37 37 41 48 53 55 57 57 59 62 60 56 55 54 54 55 53 50 46 44 45 43 44 56
39 40 41 42 42 35 28 32 41 38 36 42 52 66 67 62 59 50 43 42 40 36 34 32 28 27 28 28 29 31 33 33 30 29 30 32 31 30 29 27 24 24 29 32 32 34 36 38 41 43 44 43 40 37 35 37 37 36 38 41 42 43 53 71 75 68 61 58 55 49 42 39 37 35 34 38 45 50 54 58 60 61 62 62 58 54 54 53 55 58 57 56 56 56 53 50 57
38 39 44 45 39 33 34 35 41 40 32 38 58 70 64 59 59 51 43 37 33 31 29 30 29 30 31 30 31 32 33 33 30 30 32 33 33 31 30 28 25 26 31 32 32 36 39 41 41 40 36 30 27 23 22 24 25 25 29 33 32 32 49 77 86 77 68 63 56 47 47 54 53 47 45 50 57 58 59 62 65 65 64 64 61 56 53 52 51 55 59 63 66 64 59 56 60
36 40 45 43 34 35 40 36 39 40 34 43 62 71 64 55 52 49 43 36 32 31 29 31 31 31 33 33 32 30 31 33 31 32 35 35 36 34 32 31 28 29 32 32 34 38 42 42 38 35 31 29 29 28 27 27 24 27 34 39 41 49 66 80 77 70 65 62 56 55 66 74 70 67 68 70 72 69 68 70 71 71 69 67 65 62 57 54 50 49 57 67 69 66 63 61 61
39 41 40 36 33 35 40 38 36 37 42 51 57 63 66 57 49 47 43 38 35 34 32 33 32 32 33 32 31 31 31 32 32 35 38 38 40 38 36 34 30 30 32 32 34 38 41 40 37 35 31 31 34 35 35 35 36 43 53 56 53 57 66 67 65 67 66 65 65 69 81 83 77 76 77 77 77 75 73 74 75 75 74 71 68 66 62 58 54 49 55 65 69 67 65 65 63
43 38 34 32 36 40 41 39 39 40 45 46 44 56 68 64 58 52 48 46 40 36 35 35 34 33 33 33 33 33 32 33 36 39 42 42 42 40 37 35 32 31 32 32 33 36 39 39 38 36 33 34 37 37 37 38 41 51 61 62 55 55 67 75 80 84 85 87 88 89 94 94 89 85 81 77 76 78 78 75 74 74 74 73 72 69 66 62 58 52 51 56 63 65 63 65 67
43 36 39 40 41 44 39 36 45 53 47 38 38 53 66 67 66 58 53 54 47 40 39 37 35 33 33 33 35 35 33 36 41 43 45 45 43 41 38 35 33 32 32 33 33 35 37 39 39 37 36 37 39 39 39 39 42 48 53 54 51 58 74 83 83 84 89 94 97 98 97 95 95 95 90 82 76 79 82 78 73 71 70 71 70 70 68 65 64 59 53 51 55 60 64 69 72
35 33 44 45 40 41 40 40 49 51 44 41 41 46 55 58 61 60 58 58 53 46 44 41 37 34 33 34 35 37 37 40 45 47 46 46 44 41 37 35 34 32 32 32 33 33 35 38 39 39 40 41 42 43 42 42 45 47 50 51 51 58 67 71 70 72 75 75 72 70 71 83 96 97 92 87 82 82 82 78 72 67 65 64 63 62 62 63 65 65 63 59 57 58 66 74 75
34 40 46 46 44 43 42 46 51 47 45 50 43 39 48 50 56 66 61 55 53 49 48 45 38 34 35 38 39 39 41 45 48 48 47 44 41 38 36 34 33 32 32 32 32 32 35 39 40 41 43 44 46 47 46 47 50 51 53 54 54 57 63 66 70 71 62 49 42 44 60 85 101 98 90 85 83 79 77 73 69 63 59 58 54 51 51 54 58 63 67 67 63 59 62 71 76
36 45 44 40 41 42 45 51 50 48 54 59 44 36 48 53 62 77 71 60 57 52 49 44 37 36 39 42 46 45 45 47 47 46 43 39 37 35 34 33 33 33 32 33 33 34 37 40 42 44 45 47 49 50 51 52 53 55 56 56 55 59 67 72 74 71 64 61 64 72 86 99 100 95 89 84 80 76 72 70 65 61 57 53 51 46 43 44 47 51 60 66 66 64 63 70 81
35 44 43 35 34 40 53 57 53 52 55 55 43 37 51 59 63 72 71 65 58 50 47 43 39 41 44 48 50 46 45 45 43 40 37 35 34 33 34 34 34 33 33 34 34 35 39 41 43 46 48 50 52 53 55 56 57 58 56 56 59 65 71 74 73 74 80 89 96 98 100 100 99 97 91 86 83 77 71 68 64 60 56 52 49 44 39 37 40 44 56 69 76 79 80 83 88
38 42 41 38 38 42 49 55 64 67 55 44 36 37 52 60 61 60 56 52 49 47 49 47 46 48 49 51 49 43 42 41 38 36 34 34 33 33 34 34 34 34 34 35 35 37 41 43 46 51 52 54 56 57 59 60 60 60 58 59 63 69 73 74 77 86 93 98 102 99 97 98 100 99 94 88 83 77 70 65 62 59 55 51 48 44 38 35 41 51 68 86 92 94 96 93 91
40 43 44 53 60 59 58 58 64 65 53 41 35 43 54 52 52 53 47 46 47 47 49 48 50 53 51 48 44 40 39 37 35 34 34 33 34 34 34 35 35 35 35 36 37 40 43 46 51 55 56 57 60 62 63 63 63 62 62 64 68 72 75 76 79 83 83 89 100 102 99 100 101 99 93 87 81 77 70 62 65 68 60 52 47 44 38 35 45 60 77 96 100 97 99 96 94
44 47 49 65 72 76 80 69 61 61 53 39 32 48 65 55 48 48 43 43 45 45 49 50 51 52 49 44 41 39 36 35 34 33 34 34 35 36 36 37 37 37 38 39 40 43 48 54 57 58 60 62 65 66 66 66 65 65 65 69 74 76 78 78 75 73 69 69 81 92 98 99 97 93 88 85 82 79 71 63 68 74 64 52 47 44 38 36 47 60 70 89 99 94 94 95 95
49 46 47 62 63 71 83 72 69 73 61 47 44 62 78 66 52 45 39 41 46 48 51 51 52 49 44 40 38 37 35 34 33 33 36 37 37 38 38 39 40 40 40 41 45 51 57 60 61 63 66 68 70 70 69 68 66 67 70 74 79 81 80 76 71 75 79 75 74 85 94 94 91 87 85 83 80 76 72 68 69 70 62 54 49 44 39 41 56 68 65 74 91 94 90 85 85
45 43 49 62 53 55 69 64 63 67 62 61 64 70 70 59 51 45 41 45 48 51 50 45 46 43 38 38 37 35 35 33 33 36 39 39 38 40 42 45 45 44 46 51 57 61 62 64 66 68 72 73 73 71 69 68 67 70 76 81 84 81 76 74 75 84 92 92 89 88 86 83 78 77 77 75 73 73 76 80 79 74 66 59 50 45 53 67 81 89 81 73 78 85 86 82 80
40 46 45 46 41 46 66 67 56 60 70 69 63 60 51 48 54 48 43 48 48 48 47 40 40 39 37 38 36 35 35 34 37 41 41 39 39 44 51 54 53 53 59 64 64 64 64 68 72 74 76 74 72 69 66 66 69 77 84 87 85 78 76 82 89 94 97 95 90 79 71 69 68 70 74 76 79 81 85 91 90 84 77 71 69 71 83 95 98 99 97 88 78 80 87 88 86
44 57 43 39 46 50 65 72 67 73 78 63 51 54 51 54 62 49 40 49 49 46 44 38 39 40 37 37 36 35 35 37 44 44 39 40 47 56 62 62 62 64 68 67 65 66 70 74 78 78 76 71 68 66 65 67 75 87 92 88 80 78 88 97 97 95 94 84 75 72 75 81 84 88 90 91 92 91 89 89 89 91 89 84 87 94 96 98 100 99 100 98 91 90 95 95 96
38 44 32 43 61 64 74 82 82 85 81 64 53 54 55 58 61 55 51 52 47 42 41 41 42 39 36 38 36 35 40 47 48 42 41 52 62 65 62 62 65 67 68 68 69 74 78 80 79 74 70 67 64 64 67 76 85 90 90 83 78 84 97 102 94 87 81 72 75 87 94 93 92 93 93 92 91 88 85 82 82 87 86 81 88 95 94 95 101 101 99 100 99 98 96 95 99
39 39 36 49 61 71 86 89 85 86 82 76 70 61 56 51 49 54 56 49 42 42 45 45 41 38 39 38 35 40 50 50 44 45 57 66 65 63 62 64 67 70 72 76 80 84 82 78 73 68 64 61 62 68 77 86 88 84 83 82 81 87 95 93 87 81 77 74 80 87 86 81 80 79 79 81 82 82 81 79 79 77 72 77 91 97 96 98 101 99 98 97 97 97 94 90 96
47 50 55 67 65 63 73 76 81 88 83 79 82 77 59 43 40 46 47 41 38 43 47 43 39 40 39 35 40 51 50 44 49 61 68 65 63 64 66 68 72 75 78 81 85 84 79 75 69 62 60 62 70 81 85 86 86 83 83 84 83 86 89 85 82 81 80 79 77 77 75 74 72 69 67 68 70 72 71 70 73 73 71 81 93 95 96 100 101 99 97 96 94 97 96 87 89
39 46 51 64 68 61 67 77 78 83 81 75 87 94 67 39 36 38 37 37 38 43 44 40 40 40 37 40 48 49 44 49 62 68 64 64 69 71 72 77 80 78 76 77 77 76 72 68 63 61 66 77 87 90 82 80 89 91 86 83 82 84 85 81 79 79 77 76 75 75 76 75 74 73 73 74 74 74 72 71 75 79 80 85 91 96 100 101 100 100 99 98 95 97 96 86 84
Wind_Speed
7 5 3 3 3 5 3 1 0 1 1 2 1 0 2 2 1 2 3 1 1 2 1 2 5 8 8 9 13 15 13 6 2 2 2 4 5 3 8 6 2 4 3 1 0 4 6 3 1 5 6 7 8 9 6 8 11 6 4 3 4 3 2 2 3 6 5 4 5 5 6 5 6 6 9 9 7 5 5 6 6 7 7 6 9 12 15 13 12 11 10 12 12 13 15 18 21
6 4 4 3 4 4 1 2 0 1 1 3 1 1 3 3 1 5 4 1 0 1 7 11 15 16 14 15 14 12 14 12 7 4 0 8 4 4 7 7 3 4 3 0 3 4 6 4 2 3 6 7 8 8 6 7 10 7 3 4 4 4 4 3 4 5 6 6 6 6 6 5 5 6 9 10 9 6 5 7 6 6 6 7 9 12 14 13 11 11 12 12 10 11 15 20 22
5 4 4 3 4 2 1 1 0 1 1 4 2 2 2 3 4 6 4 2 1 9 14 14 14 11 9 9 8 6 6 8 9 6 2 8 2 3 7 8 7 6 4 1 4 4 5 4 3 3 3 6 7 6 6 6 7 6 4 5 4 7 6 4 3 3 5 6 6 7 6 5 6 6 8 9 9 7 5 7 8 6 6 8 11 12 12 13 13 11 11 11 11 10 13 19 20
4 4 4 5 5 1 2 1 1 2 2 2 2 4 2 3 6 5 4 2 5 12 8 6 7 7 7 7 6 6 5 5 9 9 6 10 8 6 9 9 9 8 6 4 4 3 5 5 4 5 5 6 8 6 5 4 4 5 3 4 3 6 7 6 3 4 6 6 6 7 6 6 6 6 8 9 9 8 5 7 9 9 8 9 13 12 10 13 13 12 11 10 11 10 14 19 19
4 3 6 7 3 1 1 1 1 2 3 2 1 5 3 5 6 5 1 4 6 9 5 4 5 5 9 9 5 3 6 4 5 9 8 10 9 8 9 9 10 9 7 5 5 4 5 5 5 5 7 9 9 7 6 4 3 3 3 3 4 3 7 6 4 5 6 7 7 7 7 7 6 7 9 8 8 8 6 7 9 12 11 9 14 13 10 12 12 13 13 11 11 11 14 18 19
3 4 6 6 1 1 1 1 1 2 4 4 2 5 4 5 5 4 3 8 8 6 7 7 7 9 10 11 11 7 6 3 3 8 9 9 8 7 8 8 9 10 8 6 7 7 6 7 7 5 4 5 8 9 7 5 5 4 2 3 4 3 4 7 5 5 6 8 8 8 8 8 7 9 9 7 7 8 8 8 8 12 12 9 12 12 11 14 14 13 14 13 12 12 13 15 19
3 4 4 4 1 2 2 3 3 3 4 4 4 5 5 5 3 3 2 4 6 7 7 9 11 12 8 6 10 10 6 5 5 8 8 8 6 6 6 6 9 9 7 6 8 9 8 9 10 8 5 2 4 6 5 5 5 6 5 4 3 3 2 5 6 6 8 9 8 8 8 9 9 8 9 8 7 7 8 9 10 11 12 10 11 12 13 15 16 15 14 14 13 12 12 14 18
4 4 3 3 0 2 2 2 4 3 3 3 4 4 4 4 3 2 1 0 2 5 6 7 8 6 4 5 6 7 6 7 8 8 6 5 4 3 3 4 6 5 5 5 6 8 9 9 8 9 8 6 7 7 6 5 4 4 6 5 4 4 3 3 5 5 7 8 9 9 8 8 9 10 12 10 8 7 8 10 11 13 13 12 11 12 14 15 17 16 14 15 14 13 12 13 18
5 3 2 2 1 1 1 2 4 3 4 4 3 4 3 3 3 2 1 2 2 4 6 3 4 4 6 9 9 7 7 8 8 6 5 3 3 2 1 2 2 2 2 4 4 5 6 6 6 5 5 5 8 8 8 8 4 2 5 7 5 5 4 4 4 5 7 8 8 9 8 7 8 10 13 11 9 9 10 10 10 13 14 13 12 12 13 14 17 16 14 15 15 14 14 13 17
3 2 1 2 1 2 4 3 3 3 4 4 4 5 3 2 3 1 3 3 3 4 6 6 5 10 12 9 7 5 5 7 6 5 5 4 5 3 1 2 2 3 3 2 2 2 3 3 4 4 2 3 5 5 7 8 7 6 7 8 7 6 5 4 4 5 6 9 10 10 9 7 7 8 11 11 11 10 10 11 10 11 13 14 11 10 12 14 16 16 14 14 16 15 15 14 17
1 2 2 2 0 3 4 3 4 4 4 4 4 4 2 1 3 2 4 5 4 5 5 5 5 14 13 6 6 5 5 6 6 6 6 6 6 4 4 6 6 5 5 5 4 3 3 3 2 2 1 2 2 2 2 3 4 5 6 7 8 8 8 5 5 5 4 8 10 10 11 10 9 8 9 11 12 12 11 11 10 10 11 13 12 11 14 17 15 16 16 15 16 16 16 16 18
0 2 3 2 2 3 4 3 4 5 5 4 2 1 0 2 2 1 4 6 5 7 8 6 8 12 6 4 7 6 6 7 7 8 8 7 6 7 8 8 8 8 8 8 5 5 7 6 5 4 3 0 1 2 1 2 2 1 1 3 5 7 8 8 7 7 6 7 8 9 11 11 10 9 8 8 10 11 11 11 11 10 11 11 12 13 16 19 16 16 17 15 16 16 16 16 17
2 2 4 1 3 2 2 2 4 4 5 3 3 0 0 1 2 1 5 6 5 5 7 7 11 8 3 6 8 7 8 9 9 9 8 7 8 9 9 9 9 9 10 8 6 8 8 7 8 7 6 3 1 2 1 3 4 3 3 3 1 4 6 7 7 8 9 9 9 9 10 12 12 11 9 8 9 10 11 11 12 12 12 11 11 12 14 19 20 16 15 15 14 13 14 15 17
3 4 4 1 1 1 3 2 3 2 4 5 2 1 1 2 4 3 5 5 5 4 5 6 9 4 5 8 7 9 11 12 12 10 10 9 9 9 8 9 9 10 10 8 8 10 9 9 10 9 8 7 5 3 2 2 3 3 3 4 4 2 4 5 5 7 9 10 10 10 11 12 12 13 12 11 11 11 12 12 13 13 12 12 12 13 13 15 20 18 14 14 13 13 14 15 17
4 3 4 1 1 1 3 3 2 3 5 4 2 1 4 4 4 3 4 4 3 5 5 5 7 3 6 9 7 13 14 14 14 13 13 12 11 11 10 10 10 11 11 11 11 11 10 10 10 10 9 9 8 7 7 5 3 3 3 3 4 3 3 4 5 6 7 9 10 11 11 12 12 13 14 14 14 13 14 14 14 13 12 13 12 13 12 12 17 20 16 15 15 16 16 15 17
4 3 4 1 2 2 3 3 1 2 5 4 3 4 4 3 3 3 3 5 6 6 5 4 4 2 7 11 11 15 16 15 15 14 14 14 13 13 13 13 12 13 13 13 13 12 12 11 10 11 10 10 10 10 10 8 6 4 5 4 4 4 3 3 4 6 6 7 8 9 11 11 12 13 14 16 17 16 16 16 15 15 14 15 14 14 16 13 14 19 20 18 16 18 18 17 17
3 2 2 2 1 1 3 3 2 2 5 4 4 6 4 2 2 5 5 6 8 8 6 5 4 5 9 13 14 16 16 15 15 15 14 13 13 13 14 14 13 14 14 14 14 14 13 12 12 11 10 11 10 11 11 10 8 6 7 6 6 6 5 4 4 5 6 7 7 9 10 11 11 12 14 15 17 18 18 17 17 17 16 15 14 16 19 17 14 15 19 21 18 18 19 19 18
2 2 1 3 2 3 5 6 6 3 2 3 6 6 4 2 4 8 6 7 11 11 11 10 9 11 13 14 15 16 16 16 15 14 13 12 11 12 13 13 13 14 15 14 15 15 15 15 14 12 11 11 11 11 11 10 9 8 9 9 7 8 8 7 7 7 7 7 8 8 8 9 11 12 13 14 15 17 18 19 19 18 18 17 16 16 17 18 17 15 16 18 19 18 19 20 20
2 3 1 4 5 5 5 5 6 4 3 2 4 5 5 4 6 10 4 3 8 9 10 12 14 16 16 16 17 17 16 15 14 12 11 12 12 13 14 14 14 14 15 14 15 17 17 18 17 15 15 14 13 13 12 12 11 11 11 10 10 10 9 8 9 9 9 9 10 10 8 8 9 11 12 13 14 15 17 19 20 20 20 20 19 19 18 17 19 20 18 17 18 19 21 22 22
1 2 1 5 5 5 6 6 7 6 4 2 1 4 5 5 7 9 5 5 4 4 8 10 15 20 19 19 19 18 17 16 14 13 13 15 17 17 18 18 18 18 17 16 16 17 18 19 19 19 19 17 16 15 14 15 15 15 14 14 13 13 12 10 9 9 9 9 9 10 10 9 9 10 11 13 13 14 15 17 18 20 21 22 22 22 21 20 21 22 21 22 22 22 23 24 24
1 3 4 5 3 2 5 6 7 6 4 3 1 2 2 5 9 10 8 6 4 8 14 11 16 25 23 22 21 19 18 17 16 15 17 18 19 19 20 20 20 19 17 16 17 18 19 20 21 21 21 20 20 19 19 19 19 18 18 18 18 17 16 15 13 12 11 10 10 11 11 9 9 10 11 12 13 15 16 17 18 18 20 22 24 24 23 23 23 23 23 23 25 25 25 27 27
1 3 4 3 2 2 7 6 4 5 4 3 2 2 3 6 8 11 12 7 3 5 12 13 18 27 26 25 23 20 18 18 17 17 18 18 19 20 19 19 18 17 17 17 19 20 21 22 23 23 23 23 24 24 24 25 24 23 23 22 22 21 20 20 19 18 17 15 15 15 13 11 10 11 11 11 12 13 15 17 18 19 20 21 23 24 25 25 25 24 24 24 24 26 26 28 30
2 3 4 3 2 3 9 7 5 6 5 4 2 4 4 6 4 10 15 9 4 3 6 17 23 26 27 25 23 20 19 19 18 17 17 18 19 19 19 18 17 17 18 20 21 21 22 23 24 25 25 26 27 27 28 28 28 28 28 27 26 25 25 25 24 24 24 23 22 21 18 16 15 15 15 15 15 14 15 16 17 19 21 23 24 25 26 26 27 26 27 26 25 25 27 28 31
2 3 4 4 3 4 8 8 7 7 7 6 3 3 3 5 4 6 11 9 6 3 10 24 27 27 26 24 22 20 20 20 19 18 18 19 18 18 18 17 17 16 18 21 21 22 23 24 25 26 26 28 29 30 31 31 32 32 32 32 31 30 30 29 28 29 29 28 28 27 25 24 22 22 21 20 19 19 19 19 19 19 20 22 24 26 27 28 28 28 29 30 28 27 28 29 31
3 2 5 5 4 3 5 7 6 9 8 7 4 3 2 3 4 2 3 4 4 11 22 29 29 27 24 22 21 20 21 21 21 20 19 19 16 16 16 16 16 16 19 21 22 23 24 25 26 27 28 29 30 32 33 34 35 36 36 36 36 36 35 34 33 33 33 32 32 31 30 30 29 29 28 27 25 24 24 24 23 23 23 23 24 25 27 29 30 30 30 30 31 30 30 30 31
2 4 6 6 4 4 5 6 8 8 5 4 3 3 3 2 2 2 4 10 16 23 29 30 29 26 22 21 21 21 21 21 20 20 19 18 15 16 17 18 19 20 21 22 24 25 26 26 27 28 30 31 32 33 35 36 38 38 39 39 39 39 39 38 38 37 36 35 35 34 33 32 33 33 33 33 32 30 30 29 28 27 26 26 25 25 26 29 30 31 32 32 31 31 31 32 32
5 7 5 4 4 4 5 8 14 9 3 5 2 4 5 2 1 2 8 19 24 28 30 28 27 25 23 23 22 21 21 21 19 18 18 18 18 19 20 21 22 23 23 24 26 27 26 27 28 30 32 32 34 35 36 38 39 40 40 40 40 40 40 40 39 39 38 37 36 35 34 34 34 35 36 36 36 36 34 33 33 31 30 29 28 28 27 29 30 31 32 34 34 33 32 33 34
5 8 3 2 7 4 7 11 15 9 4 9 2 5 5 2 1 2 14 24 26 28 30 28 27 27 25 24 23 22 22 20 17 17 19 21 22 21 22 23 24 24 25 26 27 28 28 28 30 32 33 34 36 36 37 38 38 39 39 39 38 38 38 39 39 39 38 36 35 34 33 33 34 35 36 38 39 39 38 37 35 34 34 33 31 31 30 30 31 31 32 33 35 37 36 34 34
3 8 1 4 11 6 7 10 12 8 3 10 6 4 4 2 3 4 20 25 26 28 30 28 28 28 25 25 24 23 21 19 18 19 21 21 22 22 23 24 24 25 25 25 27 29 29 30 32 34 35 36 37 37 37 37 36 35 36 36 36 36 36 37 37 37 36 35 34 33 31 31 31 33 34 36 38 39 40 38 37 36 34 35 34 34 33 32 33 33 32 33 34 36 39 38 35
3 6 3 4 10 4 4 8 10 8 3 11 10 4 4 4 4 7 22 26 27 27 27 30 29 26 25 26 24 23 20 19 20 21 21 21 22 23 24 25 25 26 26 26 29 30 31 32 35 37 38 38 38 38 38 37 35 33 33 32 32 33 34 34 34 34 34 34 33 32 30 29 29 30 31 33 34 36 37 37 36 35 34 34 35 35 36 36 36 35 34 34 35 35 38 40 39
3 4 3 4 5 5 7 8 8 7 3 11 10 3 5 3 8 5 20 25 27 27 25 28 26 24 26 25 23 23 21 20 21 21 21 21 23 24 25 25 25 26 28 28 31 32 33 35 37 38 37 36 35 36 37 36 35 33 32 32 32 32 33 33 33 33 32 32 31 30 28 27 27 27 28 29 30 31 33 33 33 32 32 32 33 34 36 37 37 37 36 34 35 36 37 39 41
4 4 4 4 2 6 10 7 4 4 3 9 8 3 6 3 10 6 17 23 25 27 24 25 24 25 26 23 22 23 21 20 20 20 21 22 23 25 26 25 24 25 27 27 29 29 31 32 33 32 30 28 28 30 30 29 28 27 27 28 29 31 32 33 33 33 33 32 30 28 26 25 25 25 25 26 28 29 30 31 31 30 29 30 31 32 34 36 37 38 37 34 33 35 37 38 38
3 4 4 5 4 6 7 4 2 3 2 6 5 3 6 2 10 11 12 22 24 27 22 22 24 25 24 22 21 21 20 19 20 19 21 22 23 25 25 24 22 23 25 26 27 29 30 30 27 24 21 22 23 25 24 22 21 21 22 23 25 27 29 31 32 33 34 33 31 29 26 25 25 25 25 25 26 27 28 29 29 28 28 28 29 31 32 34 35 37 38 36 34 34 35 37 36
4 3 2 5 4 4 6 6 3 6 4 5 2 4 6 4 13 16 7 23 25 25 20 22 24 23 22 20 19 18 18 19 19 18 19 22 23 24 25 24 22 23 26 27 28 29 28 25 21 19 19 21 21 21 20 19 20 21 22 23 24 26 28 29 31 32 32 31 30 29 27 26 26 26 26 26 26 27 28 27 27 27 27 28 28 29 30 31 33 34 36 36 35 34 35 35 35
4 5 4 5 4 3 6 7 3 7 4 5 5 5 5 7 12 14 5 22 23 20 19 22 22 21 19 18 17 16 17 18 17 17 18 21 23 24 24 24 22 24 27 25 26 25 22 21 20 21 23 22 21 19 19 20 22 24 25 26 27 28 30 30 30 30 30 28 28 27 26 26 26 27 28 28 28 29 30 29 29 27 27 28 28 29 29 29 30 31 33 34 35 35 35 35 34
6 6 3 6 8 5 7 7 4 4 4 5 5 3 4 8 8 10 9 20 21 18 19 20 19 18 17 16 16 15 15 16 15 17 18 19 22 22 24 25 24 26 25 22 23 22 21 22 24 24 23 21 20 20 21 22 24 26 27 28 28 29 31 32 33 32 31 29 29 28 27 26 26 27 28 29 29 28 29 29 29 29 28 28 28 29 29 28 28 29 29 31 33 34 34 35 33
4 5 4 6 9 8 6 6 4 2 2 5 2 3 5 7 7 7 10 17 17 16 16 16 15 15 14 14 14 13 14 14 14 17 17 18 20 21 24 25 25 27 22 20 23 22 23 25 25 24 22 21 21 23 26 28 30 31 32 32 31 30 31 33 35 35 34 34 33 31 29 29 28 28 29 30 30 29 28 28 28 28 28 28 28 28 28 27 26 26 27 28 29 32 33 33 32
3 4 6 6 6 9 8 5 4 3 3 5 0 6 6 5 5 6 9 11 10 11 13 12 13 12 11 11 12 11 11 11 13 18 17 17 20 22 25 26 27 27 19 20 25 24 24 24 23 22 22 24 27 30 33 33 34 35 36 36 35 34 32 32 34 35 35 35 35 33 32 31 30 30 30 30 31 31 31 30 29 29 28 28 29 29 28 27 27 26 25 25 26 28 31 31 29
3 3 5 6 5 7 8 4 2 2 3 5 2 6 4 4 4 6 8 8 9 12 13 12 12 11 10 10 11 10 10 11 14 18 18 18 22 24 26 27 29 25 19 23 26 24 23 23 22 23 25 30 34 37 37 36 36 36 35 36 37 37 33 31 32 34 35 35 35 34 31 30 30 29 29 29 29 30 31 31 30 29 29 29 29 30 29 28 27 26 24 24 25 26 28 29 27
4 5 5 6 6 5 6 6 5 4 4 4 3 5 2 2 4 5 6 8 12 13 14 14 12 13 12 11 10 9 10 11 15 18 18 20 24 26 27 28 30 26 21 26 27 24 23 22 24 27 30 35 40 41 40 38 37 34 33 33 33 32 31 32 34 36 36 36 35 31 29 29 30 29 27 27 27 28 29 30 30 29 28 28 28 30 31 30 28 26 25 24 24 25 27 27 26
5 5 4 7 8 6 7 11 11 8 4 1 3 3 1 2 3 3 3 6 9 11 13 14 13 12 10 8 6 8 10 11 15 19 19 22 25 27 28 29 30 28 25 27 27 25 25 24 27 30 33 38 42 43 42 41 37 33 32 32 32 32 33 35 36 36 36 35 33 30 30 31 32 31 29 28 28 28 29 29 30 30 29 27 27 29 30 31 30 27 25 24 24 25 25 26 25
7 5 5 6 8 9 12 13 10 7 4 1 2 3 3 3 4 4 3 3 4 6 9 11 11 10 8 6 6 9 11 13 17 19 20 23 26 28 30 31 31 29 27 27 28 27 27 27 29 32 35 39 42 44 45 43 37 33 33 34 35 36 35 35 34 34 33 32 31 30 30 31 32 32 31 30 30 30 31 30 31 31 31 30 29 30 30 31 31 30 28 27 27 27 26 27 27
7 3 2 4 8 11 15 14 7 3 5 4 2 0 4 2 4 7 5 4 4 3 4 7 9 8 7 7 9 10 13 16 19 21 22 25 27 30 32 32 32 30 28 27 28 29 29 30 31 33 36 39 42 44 45 43 38 35 34 36 37 37 35 35 35 35 33 32 32 31 31 32 34 34 34 33 32 32 32 32 32 32 33 33 32 32 32 32 32 32 31 30 29 28 27 27 28
7 4 3 7 11 12 14 12 4 2 5 6 1 1 3 3 4 6 7 5 4 3 2 4 6 6 7 10 12 12 14 18 21 24 25 27 29 31 33 33 32 30 28 28 30 31 31 31 30 32 35 38 40 42 43 41 37 35 36 38 39 38 37 40 40 39 38 38 38 37 35 34 35 36 34 33 32 31 32 32 31 31 32 33 34 34 34 34 34 33 32 32 31 29 28 28 28
7 7 6 8 9 10 11 8 4 2 2 4 4 2 3 5 2 3 5 5 5 3 1 2 3 4 8 13 15 14 16 20 22 24 26 29 31 33 35 34 33 31 30 31 33 33 31 29 29 32 35 38 40 40 39 38 35 35 36 38 41 40 40 41 42 43 44 42 40 38 36 34 35 36 35 34 33 31 30 30 30 30 30 31 32 33 35 35 36 36 34 33 32 31 30 29 29
9 9 9 8 6 5 4 3 4 4 2 3 6 3 2 6 2 3 3 4 4 2 1 1 3 7 9 13 17 17 18 20 23 25 28 31 34 36 36 35 35 34 34 35 36 35 31 28 29 33 36 39 40 39 38 37 36 36 37 40 42 41 39 40 42 43 42 37 35 33 30 31 32 33 34 34 34 33 31 30 30 30 30 31 31 32 34 36 37 37 35 32 31 30 30 30 29
9 8 9 9 5 2 1 2 3 5 3 4 6 3 3 5 2 2 1 1 2 4 3 3 5 10 11 14 18 18 19 21 24 28 31 34 37 38 37 37 37 37 37 36 37 35 30 27 30 35 38 40 39 38 37 37 37 38 40 42 41 39 38 40 41 40 36 32 30 28 27 29 30 31 33 33 33 33 32 31 31 31 31 31 31 31 32 34 37 37 34 31 29 29 30 29 29
6 5 7 10 7 3 3 3 4 3 5 5 4 5 4 5 3 3 3 3 6 5 4 4 6 11 14 14 18 19 20 23 27 31 34 37 39 39 38 37 38 39 38 37 37 34 29 27 32 37 39 39 37 37 36 37 39 40 42 42 40 39 39 39 37 33 31 29 29 28 28 30 31 31 30 31 31 31 31 31 31 32 33 33 32 32 31 33 36 35 30 28 29 29 30 30 29
6 5 7 8 6 5 5 6 4 2 6 6 6 6 4 6 1 5 6 4 5 4 3 5 8 12 15 16 19 21 23 28 33 36 39 41 42 41 40 40 39 39 37 36 36 30 26 28 35 38 39 38 36 36 36 38 40 42 42 41 39 39 38 36 33 32 32 30 28 26 24 24 26 27 28 30 31 31 30 30 29 30 33 35 34 34 33 33 34 34 31 30 31 31 31 31 31
6 4 4 4 5 7 7 7 6 5 8 10 8 4 4 6 1 5 6 5 5 2 5 8 9 11 15 17 20 25 31 37 40 42 44 44 44 44 43 40 39 38 36 35 31 24 24 33 38 38 37 35 34 36 38 40 42 43 43 41 38 37 36 36 37 39 38 36 34 31 27 26 28 30 30 31 30 29 30 30 29 31 34 36 36 36 35 34 34 34 35 35 34 34 34 33 32
3 1 2 3 4 6 7 6 7 8 9 10 7 2 4 5 1 5 8 8 5 5 9 9 9 12 17 20 24 32 39 44 47 47 45 46 47 46 43 40 40 37 34 30 24 22 30 37 36 33 32 33 35 37 40 42 44 45 43 39 36 35 37 40 41 38 33 30 32 32 29 30 32 32 31 31 31 30 30 30 30 32 35 37 37 36 35 33 32 32 34 36 36 35 34 34 32
2 1 3 3 4 4 4 6 7 9 10 7 4 1 4 2 0 4 7 6 1 8 12 13 13 18 23 28 34 41 45 48 49 45 45 48 49 45 40 39 37 32 27 24 25 31 36 34 30 30 31 34 37 40 42 44 45 44 40 35 35 37 40 39 35 29 25 24 26 30 32 34 35 35 35 35 35 32 30 29 30 33 35 36 35 33 31 30 30 30 32 34 36 34 31 32 32
2 3 3 6 4 2 1 6 8 9 9 5 2 4 4 2 0 1 1 2 6 9 14 18 20 25 30 33 39 45 48 49 45 42 47 50 47 40 36 35 32 27 26 28 33 36 33 28 27 30 34 37 40 42 45 46 44 40 36 35 37 38 35 29 26 25 26 27 31 35 37 36 34 33 33 32 30 29 28 29 31 32 34 32 29 26 27 27 28 29 30 32 33 32 29 29 30
3 3 5 5 2 3 2 4 6 6 8 6 4 9 10 5 3 0 2 7 10 10 15 20 22 26 29 33 40 47 47 43 41 46 51 47 39 35 35 34 31 30 31 33 34 31 26 26 30 33 37 41 43 46 47 45 39 35 34 36 35 32 26 23 25 27 30 33 35 34 30 27 25 24 24 23 24 25 26 28 29 30 30 28 25 24 26 26 26 27 29 30 30 29 28 27 27
4 3 4 3 5 4 3 2 4 6 9 9 9 11 7 4 5 2 2 9 14 16 16 15 17 23 29 35 44 47 40 37 43 50 47 38 34 36 38 37 35 34 34 33 29 25 26 29 33 37 41 44 46 47 44 38 34 33 35 33 29 24 21 22 26 30 33 33 30 26 24 25 25 25 24 24 25 26 27 28 28 29 29 29 29 27 26 25 25 25 27 28 29 27 26 26 25
3 3 3 3 2 2 1 1 1 3 7 10 13 12 5 3 4 3 6 13 18 19 15 11 17 28 36 43 45 40 36 41 47 44 36 33 36 39 39 38 37 34 32 29 25 26 30 34 37 42 47 49 46 41 35 31 31 32 30 26 24 23 23 26 30 32 31 28 25 25 28 30 30 31 30 29 29 28 28 28 29 30 30 31 31 27 24 23 23 25 27 28 29 26 25 26 25
5 5 5 5 2 2 2 2 2 2 4 8 11 11 7 5 1 3 12 17 18 17 13 14 25 36 44 46 39 35 40 45 42 35 33 36 39 39 38 36 34 31 29 27 28 32 36 39 44 49 49 45 38 31 28 29 28 26 25 24 26 27 28 30 30 29 27 27 27 28 30 31 32 32 32 31 31 30 29 28 28 28 28 28 27 23 20 20 21 23 25 27 28 26 26 26 27
3 4 3 3 3 3 6 6 1 3 1 6 7 9 9 5 1 5 13 17 16 17 19 23 32 41 44 40 35 40 46 41 34 33 37 39 38 36 34 31 29 30 31 33 36 40 43 46 49 47 40 33 28 26 29 29 25 22 25 27 28 28 28 28 27 27 27 28 28 28 29 29 30 28 26 25 27 27 27 26 25 25 24 24 23 21 20 21 21 20 20 24 26 26 27 26 28
Wind_Direction
290 292 260 229 181 161 167 116 144 336 68 252 276 107 262 272 270 268 273 273 7 339 97 113 114 121 108 104 112 89 56 61 57 356 176 345 352 326 343 331 299 348 336 329 107 83 70 72 260 265 271 273 282 295 290 322 331 300 250 235 219 161 198 248 255 250 240 236 234 250 255 248 255 274 290 279 265 260 242 228 202 213 222 234 248 232 212 205 215 222 234 246 253 266 272 270 275
268 256 237 219 165 159 179 94 90 329 9 261 251 157 264 324 314 254 253 177 69 70 110 108 103 97 90 95 97 79 54 56 38 18 311 329 314 220 332 345 336 6 19 79 161 110 100 114 158 246 276 276 280 293 291 325 339 323 273 251 224 182 195 224 270 242 224 244 234 247 255 239 256 284 297 281 260 251 246 250 238 229 232 235 250 241 219 219 217 213 230 233 237 256 267 268 274
248 223 212 196 167 152 97 68 33 137 238 256 274 253 280 316 259 259 268 257 134 120 117 110 101 78 71 81 53 60 71 50 31 29 0 341 345 227 326 349 350 351 359 224 171 121 133 147 169 215 256 270 270 276 285 316 344 343 301 277 231 186 187 200 254 249 232 259 252 249 249 245 258 287 303 290 266 244 239 250 245 239 248 239 241 247 230 230 225 217 229 227 224 228 249 264 274
231 202 182 169 159 127 79 78 228 149 230 248 294 272 253 252 256 279 290 280 156 141 130 104 83 42 60 74 51 77 63 28 24 22 27 19 20 359 345 347 343 333 321 253 187 155 174 178 198 224 232 247 252 246 258 291 335 352 335 299 267 195 201 197 209 258 266 277 271 256 245 246 251 272 289 293 275 246 233 248 257 251 248 238 233 246 243 235 228 221 224 226 230 223 241 264 274
218 186 167 164 150 348 90 72 83 142 226 184 235 265 244 232 251 272 283 75 138 166 170 124 88 77 84 64 62 80 21 32 35 27 44 30 17 5 351 341 332 320 303 250 209 198 202 201 206 233 246 248 244 238 234 230 261 309 343 313 304 237 218 212 201 238 267 276 269 262 257 250 240 263 273 283 281 259 242 243 266 264 254 248 236 241 250 248 240 227 222 226 235 230 241 265 272
199 162 162 168 171 332 126 246 238 233 235 173 208 263 258 243 248 236 132 84 87 127 148 131 129 118 90 64 66 59 25 56 50 37 50 31 18 6 347 336 321 310 299 246 216 214 222 223 216 228 261 275 250 243 239 229 230 222 236 267 290 314 234 228 234 242 254 261 261 262 265 257 242 260 267 266 272 260 250 249 269 267 253 249 244 246 256 255 251 238 227 225 232 236 245 262 269
162 159 163 172 224 356 134 213 224 237 237 178 196 247 269 268 238 214 154 101 72 78 111 111 126 117 88 94 73 54 47 71 78 57 52 39 25 7 346 324 305 297 288 243 220 220 229 231 227 231 244 291 241 232 228 236 245 229 219 209 240 287 258 236 260 274 258 259 267 267 271 268 257 262 266 260 264 257 258 268 276 269 245 233 240 250 257 256 255 249 233 227 226 232 242 255 268
137 152 136 152 210 8 131 235 240 216 237 222 216 236 268 276 218 211 340 162 88 68 91 108 131 108 76 132 89 66 72 78 87 79 68 56 32 14 347 305 288 276 264 238 226 225 230 236 236 239 244 239 219 211 213 226 246 251 230 204 202 223 227 228 267 279 252 263 278 277 280 274 271 276 267 253 259 257 258 271 277 276 256 234 231 239 251 256 258 255 241 231 225 228 236 248 263
142 163 114 138 187 316 280 281 264 236 251 266 256 243 270 277 227 200 98 77 99 78 57 93 163 136 118 111 92 88 84 90 100 96 95 77 56 48 342 283 263 225 221 225 224 222 226 234 235 241 257 239 220 216 220 221 219 226 220 212 205 207 205 207 233 233 224 243 259 265 270 263 268 278 269 258 260 257 254 260 264 274 272 253 232 225 243 256 259 261 256 240 230 230 232 239 253
143 155 116 123 152 279 290 276 267 269 250 269 278 258 290 275 226 156 130 106 95 97 63 70 120 131 128 106 86 88 90 112 127 118 104 90 84 75 65 98 106 130 152 159 175 187 196 212 224 232 268 258 229 222 216 215 218 211 206 210 214 209 202 209 220 220 226 232 236 246 252 254 253 257 259 254 256 255 254 257 252 258 269 269 251 227 240 257 260 265 269 253 235 231 231 235 246
53 33 82 102 171 255 264 264 272 272 271 309 297 257 304 234 166 94 108 107 87 95 74 51 103 122 116 92 88 96 118 138 147 125 100 98 98 91 91 95 102 112 119 105 103 129 121 122 165 197 236 289 251 236 219 219 227 210 198 202 215 216 213 223 224 224 235 234 239 244 247 254 253 253 250 244 247 247 249 257 254 249 257 268 264 249 244 249 257 264 271 266 245 237 235 231 238
214 11 68 106 228 235 237 246 271 280 306 321 256 231 84 195 155 123 121 109 85 80 51 40 130 129 103 87 112 129 141 132 128 113 102 106 101 97 99 98 104 107 106 106 109 108 99 101 105 109 107 89 244 251 312 15 6 293 233 203 211 217 222 231 232 242 251 245 250 250 251 255 255 262 258 250 258 247 240 252 256 255 255 255 255 259 255 245 250 261 267 271 252 237 231 224 234
198 131 93 165 207 194 212 229 275 301 315 272 209 282 150 187 41 46 121 96 60 85 50 63 139 138 93 118 125 147 141 120 117 115 114 112 106 104 106 104 105 109 108 117 122 104 98 97 93 93 99 101 129 235 260 31 33 16 350 342 286 219 229 236 235 252 261 261 260 257 260 263 263 266 256 253 270 260 245 249 249 250 254 255 251 259 265 250 247 253 260 268 256 239 231 227 240
206 166 127 219 207 136 192 243 281 267 273 257 225 270 142 106 69 71 110 88 37 95 77 84 148 146 118 134 133 149 133 122 123 122 126 119 120 119 116 114 110 110 110 117 116 105 101 96 92 92 93 91 89 91 110 75 50 35 7 348 339 275 246 252 249 257 262 266 265 265 268 268 270 267 257 253 261 265 260 258 251 244 246 257 259 256 266 263 252 248 255 263 261 256 242 233 243
212 184 115 168 302 344 214 232 241 190 242 243 220 205 125 90 99 92 89 111 76 119 120 109 151 160 168 168 157 152 135 128 130 127 129 125 126 126 121 120 116 112 108 106 105 102 99 94 91 89 86 85 84 80 82 86 72 40 28 5 350 325 290 286 279 279 278 280 275 271 270 267 271 266 259 255 254 260 263 265 260 251 247 254 264 263 264 272 259 247 252 261 263 266 254 244 243
220 177 82 31 270 301 235 217 154 162 250 241 191 180 127 88 116 90 64 124 116 120 148 150 153 149 173 164 146 148 142 137 135 130 132 128 125 122 118 113 110 108 103 101 96 91 88 88 87 82 81 78 77 76 73 77 81 70 58 50 37 20 342 326 311 303 299 293 290 283 276 269 271 269 262 257 254 255 257 260 259 254 249 249 259 271 273 270 254 245 253 257 259 265 262 253 241
220 152 61 308 239 228 228 201 186 184 258 264 186 181 143 92 104 97 89 120 112 99 110 111 124 127 138 140 136 144 145 143 139 137 138 133 130 123 115 105 102 99 90 90 84 78 77 76 76 72 76 75 71 69 63 64 66 61 51 50 51 43 23 4 343 324 313 302 302 295 287 283 282 280 275 269 262 257 255 255 257 255 251 249 251 261 273 272 254 244 252 254 255 262 265 259 245
181 112 118 264 213 204 200 190 201 177 262 255 193 197 175 166 152 135 108 94 105 96 92 101 113 116 121 127 135 143 144 145 142 146 145 131 127 118 104 92 89 83 75 75 71 65 62 59 58 56 60 60 56 57 53 51 50 45 39 36 35 34 29 21 14 0 348 337 330 317 302 299 297 294 292 290 284 275 266 259 257 257 255 254 252 250 261 267 266 264 258 252 253 258 264 267 259
135 112 145 237 209 214 206 195 204 198 266 236 186 208 203 210 174 162 159 112 121 99 91 107 114 113 119 127 132 140 143 143 144 148 137 110 99 91 81 75 71 66 59 57 55 51 48 45 42 40 39 38 40 43 40 37 34 32 30 29 28 24 20 17 15 11 5 359 356 352 340 324 317 310 307 305 302 297 287 276 265 261 258 256 256 255 255 255 260 268 269 260 258 260 260 264 265
134 117 254 245 218 236 249 238 228 233 277 307 185 198 202 209 177 177 177 157 168 156 148 134 128 128 128 132 131 135 137 130 126 120 106 89 80 76 70 65 58 52 45 42 43 41 37 34 31 29 26 24 25 25 23 22 18 14 15 16 16 15 14 12 8 3 1 359 353 354 354 348 342 332 325 318 311 310 304 294 282 272 267 262 259 258 258 255 250 254 261 264 266 268 262 260 262
167 153 210 242 210 252 296 279 253 259 280 299 210 183 236 209 186 185 155 142 256 224 198 187 155 147 137 136 134 131 129 116 105 96 87 80 75 74 70 66 59 51 42 36 36 31 27 23 21 18 16 15 14 12 11 8 5 3 3 3 2 2 4 5 2 357 350 348 343 343 346 342 340 338 334 330 323 322 320 310 299 291 285 277 271 264 261 260 256 250 249 252 262 269 265 262 260
258 214 230 260 162 213 334 331 268 270 264 258 179 193 236 191 189 195 176 175 249 243 219 198 163 155 145 140 135 128 123 107 95 88 84 80 75 73 71 69 63 50 39 33 29 23 19 15 13 9 6 6 5 4 2 359 357 356 355 354 353 352 353 354 353 352 348 343 339 336 336 331 328 330 329 331 328 324 327 324 314 307 303 299 290 281 272 266 262 257 252 247 252 263 265 262 259
255 282 320 336 192 241 327 331 277 281 253 232 209 216 197 170 208 213 203 218 255 312 217 175 157 152 146 139 133 125 117 103 92 87 84 81 76 73 70 65 57 46 37 31 25 18 14 11 7 3 1 0 359 357 356 353 352 351 350 347 345 344 344 345 344 345 346 343 340 334 330 326 322 323 323 325 327 323 326 330 326 319 314 310 304 298 290 281 270 261 257 253 250 256 261 260 258
153 279 332 350 304 276 315 318 291 284 257 261 269 222 190 179 232 223 212 238 267 263 164 157 150 144 141 134 126 117 106 99 93 88 86 83 78 74 69 61 51 41 34 27 21 15 10 7 3 360 358 357 355 353 351 349 348 346 344 343 341 340 338 338 338 339 340 340 339 336 332 328 323 321 319 318 319 320 322 324 325 324 322 318 312 305 300 296 286 271 261 256 252 252 257 258 256
91 277 317 332 314 320 337 337 313 292 276 279 268 225 247 221 238 247 198 203 167 152 150 149 145 139 137 128 117 108 102 101 97 90 86 82 79 74 63 51 41 32 27 22 17 13 10 5 0 357 356 354 353 351 349 347 346 344 342 340 339 338 336 335 334 334 334 335 335 335 333 330 327 323 320 318 316 317 319 319 320 320 320 321 318 312 306 302 297 287 276 263 255 253 254 256 255
355 289 312 332 327 1 6 17 6 334 305 293 256 270 289 229 281 342 129 146 144 145 146 144 142 137 130 120 111 109 105 103 97 86 81 74 68 61 51 41 33 28 23 18 16 14 11 6 0 358 356 353 351 349 347 346 344 343 342 341 339 337 336 334 333 332 332 332 332 332 332 330 327 324 321 319 318 317 318 318 318 317 316 316 315 313 310 305 300 293 288 279 269 260 253 252 255
321 309 290 337 355 14 28 27 19 21 31 359 270 270 286 202 304 292 141 142 146 143 141 142 142 133 121 118 113 111 104 97 93 83 73 62 53 46 39 33 28 26 20 16 15 14 11 8 2 360 358 354 351 349 347 345 343 342 341 340 339 337 336 334 333 332 332 332 332 331 330 328 325 323 320 317 316 316 316 316 315 315 314 314 312 309 307 305 300 293 289 287 283 274 261 252 251
325 346 266 298 354 359 26 20 13 29 41 5 314 259 304 189 306 202 150 146 151 145 141 142 139 128 120 122 116 108 101 92 87 77 64 53 47 40 33 29 23 21 19 14 12 10 7 5 1 358 356 353 350 348 347 345 344 342 340 339 337 335 334 333 332 332 331 331 331 330 328 325 322 320 317 315 314 313 313 312 311 311 310 310 309 306 304 301 299 295 289 286 286 283 276 263 252
321 20 336 307 357 353 11 16 5 13 24 5 347 298 342 242 326 130 151 151 154 147 142 142 134 128 124 122 113 103 97 87 78 66 56 48 42 35 31 26 19 16 16 13 8 6 3 359 357 355 352 349 346 346 345 345 345 342 339 337 334 333 331 330 329 329 328 328 328 328 325 321 318 315 313 312 311 310 310 309 307 306 306 305 304 303 301 299 298 296 291 285 283 281 278 274 264
322 19 57 344 0 339 357 9 356 5 32 15 9 332 326 271 9 118 161 159 156 146 140 141 134 129 123 116 107 95 88 78 69 59 49 43 35 29 26 22 16 12 10 6 2 1 359 354 351 350 348 345 343 342 342 343 343 340 337 334 330 328 326 325 325 324 323 323 324 323 321 316 311 309 307 306 305 305 304 304 303 302 301 300 298 298 297 296 295 294 291 284 281 276 271 270 268
345 353 44 34 3 285 322 344 348 5 352 6 16 311 285 277 26 88 176 168 156 146 138 142 133 125 119 109 100 89 80 70 62 54 45 38 30 25 22 19 14 8 6 2 359 357 354 350 348 346 345 344 341 340 340 340 339 336 333 329 326 323 321 320 319 318 317 317 317 316 314 310 304 301 299 298 296 296 296 296 297 297 297 295 293 292 291 291 291 290 288 283 277 272 265 261 260
27 7 344 356 5 291 315 331 9 40 309 352 20 306 275 233 16 23 181 173 155 145 140 140 126 119 115 104 97 87 77 68 58 51 42 33 27 21 19 19 14 8 5 0 356 354 351 349 347 346 345 343 340 340 340 340 336 330 325 320 318 315 314 313 312 312 312 311 310 308 305 300 295 292 289 288 287 286 286 288 290 292 292 290 287 286 284 285 285 284 283 280 275 269 263 256 252
15 33 323 305 323 311 321 331 40 64 310 345 30 279 281 255 1 2 185 178 154 144 139 131 121 117 112 101 95 86 76 67 53 46 36 28 23 18 17 17 12 5 0 355 351 350 348 348 347 346 346 340 335 337 340 338 328 319 313 310 308 307 306 305 305 306 306 307 307 303 298 292 287 284 282 280 280 281 282 283 285 287 287 286 284 282 280 279 278 278 278 276 273 267 262 256 250
329 11 322 275 279 289 311 308 331 34 9 326 330 237 278 311 346 349 202 176 150 139 134 125 122 116 109 100 92 81 72 62 50 40 28 20 16 13 13 13 8 359 353 349 346 346 346 347 346 341 338 334 332 336 337 327 315 308 306 306 306 307 307 305 305 305 305 306 305 303 297 288 282 279 278 278 279 281 282 282 282 283 284 283 282 281 279 278 275 274 274 273 272 268 263 258 252
296 318 318 291 281 241 276 288 318 23 4 290 293 269 302 335 345 359 136 158 140 129 127 123 121 113 104 95 87 79 68 60 51 36 19 11 9 9 8 7 2 353 350 345 342 344 345 343 339 334 333 332 330 327 323 315 308 306 305 306 309 312 314 312 311 310 308 306 303 301 297 290 284 280 280 280 280 282 283 284 285 284 283 281 280 280 280 280 278 275 274 272 271 269 264 260 255
266 284 280 290 300 274 257 266 278 4 337 279 288 284 337 348 350 21 99 136 126 119 121 121 118 108 99 93 85 78 69 61 47 26 12 4 4 5 2 1 357 350 348 341 338 342 341 338 335 335 335 333 328 324 322 320 317 315 313 312 313 315 315 312 311 310 308 306 303 301 298 295 291 287 284 283 281 281 282 284 284 283 281 278 278 279 279 280 281 280 278 275 272 269 265 259 255
271 290 281 281 291 295 281 267 273 6 337 274 259 71 20 1 356 28 96 120 113 113 119 116 112 101 94 92 85 79 69 55 30 11 6 1 0 1 358 356 353 350 347 335 334 338 336 336 335 335 336 333 333 332 331 329 326 324 321 318 317 315 313 309 307 306 305 303 302 301 300 299 296 291 286 284 281 279 278 278 278 277 276 275 275 277 277 277 278 280 280 277 273 269 266 260 255
298 294 299 306 289 291 293 273 282 39 24 294 344 68 26 10 7 32 88 103 97 108 114 108 104 94 91 92 82 75 58 34 8 0 2 359 356 356 354 354 353 351 344 329 331 334 331 332 334 336 338 337 336 334 330 326 323 322 319 316 314 312 310 308 305 303 302 300 299 299 300 299 296 291 286 284 282 279 277 274 273 272 272 272 272 273 274 274 273 275 276 275 271 268 268 264 257
320 305 309 316 306 301 298 269 236 55 354 303 48 77 30 21 30 36 63 86 95 102 102 98 93 79 80 84 70 57 33 5 354 358 359 354 352 352 352 352 352 350 336 326 329 329 327 330 333 335 336 336 336 335 331 326 321 318 315 312 310 310 308 305 301 299 299 298 298 299 300 298 295 291 287 285 284 281 276 273 270 269 267 267 269 271 272 271 271 271 270 270 269 269 268 267 261
329 324 322 306 317 330 312 305 307 306 284 279 78 91 84 54 62 47 54 92 103 100 94 88 83 75 78 78 60 35 14 354 350 356 354 350 350 349 349 348 349 347 332 326 327 323 325 328 331 333 333 333 336 337 336 332 326 320 314 311 309 308 304 298 296 296 297 299 301 301 297 293 292 291 287 284 281 279 274 270 268 266 264 263 264 267 269 270 270 268 266 265 268 272 270 269 266
322 301 280 287 311 312 289 301 309 313 306 208 78 60 175 158 131 99 98 111 105 105 97 85 81 80 80 75 41 8 6 354 349 353 348 347 347 345 345 344 345 344 331 325 324 318 319 321 324 327 327 329 334 337 336 335 332 324 318 316 314 311 305 301 301 301 301 301 301 300 295 292 291 290 286 282 278 276 274 271 269 267 266 265 265 265 265 267 268 266 264 262 264 269 271 270 269
324 286 238 268 305 305 295 303 318 334 327 231 74 357 286 189 174 182 179 159 134 119 101 89 83 77 67 48 7 351 358 351 346 348 342 341 343 341 341 340 341 339 330 325 322 316 313 314 317 320 321 325 331 334 334 334 332 325 320 318 318 316 310 306 306 305 306 304 301 298 294 291 288 285 284 281 277 274 272 271 270 270 269 268 268 268 265 264 264 264 263 262 260 262 267 269 268
324 288 207 292 310 307 301 308 330 340 295 280 97 324 267 233 208 205 189 187 182 148 109 95 81 65 48 18 351 338 345 344 340 341 339 337 339 338 337 336 335 334 330 326 322 316 311 309 313 317 320 324 329 331 331 330 327 321 316 315 316 315 308 303 302 302 302 300 298 296 292 289 286 283 281 279 275 273 270 268 268 268 269 269 269 270 269 265 264 263 261 261 260 258 259 263 266
308 298 8 330 313 303 299 309 319 238 286 305 21 156 246 266 237 195 170 188 208 180 141 98 72 43 18 358 346 334 330 336 337 336 336 335 334 334 332 331 329 329 328 325 324 319 310 306 311 317 322 325 328 328 327 325 322 317 313 312 313 310 303 299 298 297 296 295 293 290 288 288 284 280 279 277 274 271 269 268 266 266 266 267 268 269 269 268 266 265 263 262 261 257 254 257 261
286 298 327 305 288 284 287 302 297 272 324 310 322 22 277 282 303 133 150 197 218 186 131 64 42 356 348 345 341 332 323 328 333 332 332 331 330 329 327 326 324 325 325 324 324 319 307 304 313 320 323 325 326 324 322 320 317 313 310 310 311 307 301 298 296 296 296 295 292 290 287 282 275 274 276 275 274 272 270 269 268 268 267 266 267 268 268 268 267 266 265 265 264 260 253 254 257
294 309 318 299 278 276 286 314 313 338 71 271 301 4 328 294 300 127 167 231 232 155 85 4 333 323 325 332 334 330 323 325 329 330 329 329 328 326 324 322 322 323 324 323 323 316 303 303 314 320 322 324 323 321 318 316 313 310 309 310 309 305 299 296 297 299 300 298 297 293 282 268 264 268 271 272 274 273 273 273 272 273 273 271 270 270 269 267 266 265 266 265 264 260 253 250 252
319 330 330 325 322 339 17 34 12 4 2 290 303 12 18 315 289 139 162 249 115 96 35 323 323 325 317 320 327 327 324 325 328 329 327 327 326 324 322 321 321 322 322 321 321 313 299 301 314 319 321 322 319 317 315 312 311 310 310 311 309 303 298 297 300 301 301 297 295 289 275 267 269 271 274 276 276 275 274 277 279 278 278 277 274 273 272 269 265 263 264 262 259 255 251 249 250
349 351 346 341 340 11 3 1 48 12 304 302 338 5 345 294 299 83 105 82 94 95 18 318 302 321 317 316 325 327 327 326 327 327 326 325 325 323 323 322 321 322 319 318 319 309 294 301 316 319 320 319 315 313 311 310 311 311 311 311 307 301 297 299 300 301 300 297 293 288 282 282 282 278 279 281 281 280 277 277 281 281 280 279 276 275 275 272 266 261 259 258 255 252 249 249 250
7 6 3 353 339 350 336 331 0 307 280 310 352 357 316 273 290 108 133 111 107 125 4 317 289 312 320 320 326 329 329 328 328 328 327 327 327 326 325 323 321 319 316 317 317 302 291 308 319 319 318 315 312 310 310 311 312 311 312 310 305 300 297 297 296 296 296 293 291 291 287 284 283 281 282 285 287 286 281 280 282 280 279 279 278 279 280 277 269 259 251 249 250 248 247 248 247
358 358 9 16 348 334 321 317 320 298 291 309 330 344 291 287 300 133 148 137 122 109 339 316 293 309 321 321 325 329 330 331 330 329 330 330 330 328 324 322 320 317 314 316 312 297 301 317 319 315 313 310 310 310 311 312 312 312 312 308 303 298 296 296 294 294 293 286 282 287 289 286 286 287 288 288 288 287 285 283 279 275 277 279 281 283 283 278 270 262 253 248 246 245 246 250 249
314 227 106 61 349 313 303 308 309 310 305 310 333 333 259 292 285 156 149 143 118 12 343 329 314 320 326 327 329 332 332 332 331 331 331 331 329 326 323 322 321 318 318 319 312 307 316 319 315 311 310 310 312 313 313 314 313 312 311 306 301 297 296 297 296 296 294 286 280 281 285 286 287 288 287 285 285 288 288 283 276 273 275 278 282 285 282 275 269 265 259 252 248 245 246 250 251
267 138 84 14 311 267 276 299 299 309 307 302 328 263 229 274 230 156 145 151 82 356 350 346 339 336 338 337 335 335 333 331 331 331 331 330 327 325 325 326 326 326 327 327 321 320 319 315 310 310 312 313 315 315 315 314 313 312 309 303 299 299 300 300 297 292 287 283 282 284 286 287 287 287 286 286 287 288 285 278 273 272 274 279 284 283 278 272 269 266 261 255 249 246 246 247 249
328 31 345 302 291 181 257 311 309 313 310 297 300 303 301 322 258 163 161 286 324 344 349 349 347 344 342 337 335 334 331 330 331 332 331 328 326 327 330 332 331 330 329 327 323 321 316 310 310 314 316 317 317 316 315 315 314 310 305 302 302 304 303 297 291 286 283 285 289 292 294 293 291 289 288 289 287 284 278 273 272 273 275 280 281 277 273 271 272 269 262 255 248 244 245 245 245
44 2 307 296 320 109 93 329 313 310 308 298 308 318 317 318 327 336 272 311 329 342 347 348 347 342 337 333 333 332 330 331 333 332 329 326 328 332 335 334 331 327 325 325 323 318 311 311 316 318 319 319 317 317 316 314 312 308 304 306 308 306 300 289 284 286 288 293 295 296 296 295 292 287 282 278 275 274 273 272 272 272 273 273 268 264 264 265 270 271 265 256 247 243 244 244 245
84 330 319 4 352 351 32 344 300 316 313 305 311 316 312 314 334 5 292 320 338 346 347 346 341 336 334 333 332 330 332 335 334 330 328 330 336 336 334 332 328 325 326 326 322 315 313 317 320 321 320 319 317 316 315 313 311 308 308 310 309 304 298 292 292 294 297 299 299 295 293 292 290 286 279 275 273 273 272 270 269 269 268 266 262 258 258 259 263 267 265 255 246 242 240 241 243
56 357 354 26 350 300 133 190 237 328 311 307 315 318 325 337 330 352 337 336 346 347 344 342 336 336 336 333 330 331 337 336 332 331 332 336 338 335 333 332 330 329 330 328 322 318 320 322 322 322 320 318 317 317 315 314 313 312 312 312 309 304 302 301 301 302 302 300 297 294 294 294 292 290 287 283 279 277 277 276 274 272 267 263 260 258 257 259 263 263 260 253 245 240 238 239 240
2 4 359 359 354 241 272 292 123 106 303 311 316 309 317 342 333 339 343 345 349 346 343 338 335 335 333 329 330 336 338 334 333 337 339 337 336 335 335 335 334 334 332 326 322 323 324 323 322 322 321 319 319 319 318 317 315 315 313 311 309 304 303 303 303 303 302 300 297 295 296 296 295 293 290 286 283 282 282 281 278 275 268 260 259 261 261 264 266 262 257 254 248 242 238 236 237
24 6 3 2 6 351 337 323 340 111 301 299 296 290 304 331 349 340 347 347 347 347 344 335 332 331 329 328 336 339 336 336 339 341 340 338 338 340 342 341 338 334 329 325 324 326 325 322 322 324 326 324 322 322 323 321 317 313 311 309 308 306 306 307 306 304 303 303 301 299 299 298 298 297 294 288 284 281 281 279 277 273 266 261 262 264 264 263 262 258 252 249 249 247 243 237 235